カタログに戻る

COSMOS 1823 DEB

運用中LEO
NORAD 18755·DEBRIS·🇷🇺 Russia

打ち上げ Feb 20, 1987 から Plesetsk Cosmodrome

Loading…

次のパス (今後24時間)

TLE

最新Source: Space-Track

元期: Sep 14, 2026, 03:47 UTC

1 18755U 87020AG  26257.15801414 -.00000052  00000-0 -25542-3 0  9999
2 18755  73.6388 313.1372 0033830  55.2959 334.1907 12.42511609756078

AllMySatでCOSMOS 1823 DEBをリアルタイム追跡

Download on the App Store